THOR ABLESTAR DEB, 404

Orbit data source: Space-Track

THOR ABLESTAR DEB, 404 is space debris in LEO originally from a launch on Thu, 29 Jun 1961 UTC launched from the Air Force Eastern Test Range (AFETR). Debris objects in space refer to the collection of defunct objects orbiting the Earth. Examples of debris include non-operational satellites, rocket bodies, and fragments generated from explosions, collisions, or faulty payload assembly.

Loading next visibility...
THOR ABLESTAR DEB details
Identifier
404, 1961-015ED
Orbit
LEO
Last TLE update5 hours ago
Origin
Flag of USUSAF SSD (US)
ManufacturerUnknown
MissionSpacecraft
Bus & MotorUnknown
MassUnknown
Launch date (UTC)
1961-06-29 (64 years ago)
Launch vehicleUnknown
Launch site
Air Force Eastern Test Range (AFETR)
Object type
Payload
Rocket body
Debris
Shape & HBRUnknown
Radar Cross SectionMedium (>0.1 m² and <1 m²)

Expand to show TLE details & history

TLE from 5 hours ago
0 THOR ABLESTAR DEB
1   404U 61015ED  25023.50185557  .00000187  00000-0  46613-3 0  9998
2   404  66.4701  92.7225 0550097  84.5300 281.8189 12.91924327977928
Epoch: 2025-01-23T12:02Z
Definitive object data (Epoch: 2025-01-23T12:02:40.321Z)
Latitude-0.00005°
Longitude148.97601°
Altitude1,231.985 km
Speed7.269 km/s
True Right ascension06h 10m 53s
True Declination0° 00' 00"
Sunlit
Object was in full shadow at TLE epoch
Visualization TLE readout
Latitude-62.76928°
Longitude91.15737°
Altitude1,711.011 km
Speed6.838 km/s
Apparent Right ascension04h 41m 06s
Apparent Declination-56° 32' 39"
Sunlit
Object is in daylight
Visualization observer readout
Local Sidereal Time18:25:05
Azimuth143.109° SSE
Elevation-66.263°
Doppler factor1
Orbital elements
Apogee altitude1,714.35 km
Perigee altitude870.442 km
Semi-major axis7,670.533 km
Eccentricity0.0550097
Inclination66.4701°
RAAN92.7225°
Arg. of periapsis84.53°
True anomaly275.57322°
Mean anomaly281.8189°
Eccentric anomaly278.70337°
Mean motion3.23076 °/min
BSTAR0.00046613
Orbital period111.43 mins
Loading maneuver chart data...

THOR ABLESTAR DEB Visibility forecast

Observer location: undefined°, undefined

Span
Click to sort rows by Start time (UTC) header in descending order
Start Az.
Max El. time (UTC)
Max El. Az.
Max El.
End time (UTC)
End Az.
9 mins2025-01-24 04:52:24.274Z157.521° S2025-01-24 04:57:24.274Z104.869° ESE22.336°2025-01-24 05:01:24.274Z59.789° ENE
10 mins2025-01-24 06:46:24.274Z232.284° WSW2025-01-24 06:51:24.274Z302.933° NW37.704°2025-01-24 06:56:24.274Z17.508° NNE
11 mins2025-01-24 14:36:24.274Z346.49° N2025-01-24 14:40:24.274Z45.764° ENE37.251°2025-01-24 14:47:24.274Z130.934° SE
9 mins2025-01-24 16:31:24.274Z295.97° NW2025-01-24 16:35:24.274Z246.42° WSW24.343°2025-01-24 16:40:24.274Z198.706° SSW
|